Regional Weather Roundup
Issued by NWS

Home | Current Version | Previous Version | Text Only | Print | Product List | Glossary Off
Versions: 1 2 3 4 5 6 7 8 9 10 11 12 13 14 15 16 17 18 19 20 21 22 23 24 25 26 27 28 29 30 31 32 33 34 35 36 37 38 39 40 41 42 43 44 45 46 47 48 49 50

000
ASUS43 KLMK 160710
RWRKY
KENTUCKY REGIONAL WEATHER ROUNDUP
NATIONAL WEATHER SERVICE LOUISVILLE KY
200 AM EST TUE JAN 16 2018

NOTE "FAIR" INDICATES FEW OR NO CLOUDS BELOW 12,000 FEET
WITH NO SIGNIFICANT WEATHER AND/OR OBSTRUCTIONS TO VISIBILITY.

KYZ001>023-026-027-061>063-070>075-160800-
WESTERN AND SOUTH CENTRAL KENTUCKY

CITY           SKY/WX    TMP DP  RH WIND       PRES   REMARKS
PADUCAH        MIX PCPN  14   1  56 N9        30.56S WCI   2
HENDERSON      FAIR      12   3  67 NW10      30.56R WCI  -1
OWENSBORO      FLURRIES  12   4  70 NW15      30.54R WCI  -4
HOPKINSVILLE   LGT SNOW  16  12  86 NW10      30.50R BLWGSNOWWCI   3
BOWLING GREEN  LGT SNOW  19  15  84 NW5       30.49R FOG     WCI  12
GLASGOW        LGT SNOW  19  17  90 N6        30.45S WCI  11
$$

KYZ024-025-028>034-038-045-046-053-160800-
NORTH CENTRAL KENTUCKY

CITY           SKY/WX    TMP DP  RH WIND       PRES   REMARKS
LOUISVILLE/SDF LGT SNOW  16   9  74 NW10      30.47S WCI   4
LOUISVILLE/LOU LGT SNOW  16  11  80 NW6       30.48R WCI   7
FORT KNOX      LGT SNOW  14  10  82 NW7       30.44R WCI   4
$$

KYZ035>037-039>044-047>052-055>060-089>105-160800-
NORTHEAST KENTUCKY

CITY           SKY/WX    TMP DP  RH WIND       PRES   REMARKS
LEXINGTON      LGT SNOW  19  14  81 W9        30.40R WCI   8
COVINGTON      CLOUDY    13   7  77 W13       30.41R WCI  -2
FRANKFORT      LGT SNOW  16  10  77 NW7       30.42R WCI   6
$$

KYZ054-064>069-076>088-106>120-160800-
SOUTHEAST KENTUCKY

CITY           SKY/WX    TMP DP  RH WIND       PRES   REMARKS
JACKSON        CLOUDY    30  25  81 W5        30.33R WCI  25
LONDON         CLOUDY    31  26  82 NW7       30.34S WCI  24
SOMERSET       CLOUDY    30  23  74 NW7       30.39S WCI  23
MIDDLESBORO    MOCLDY    29  25  84 CALM      30.33S
MONTICELLO     CLOUDY    29  26  89 W12       30.40S WCI  19
$$





USA.gov is the U.S. government's official web portal to all federal, state and local government web resources and services.